Location: Owl Hollow
(40.7341°N, 104.4073°W)
Time: 04:49:57
(UTC-06:00)

ISS - Visible Passes

Search period start: 26 September 2017 00:00
Search period end: 06 October 2017 00:00
Orbit: 401 x 407 km, 51.6° (Epoch: 26 September)

Date Brightness Start Highest point End Pass type
(mag) Time Alt. Az. Time Alt. Az. Time Alt. Az.
26 Sep -3.8 20:08:40 10° WSW 20:11:56 78° NW 20:13:15 33° NE visible
27 Sep -3.6 19:16:26 10° SW 19:19:36 52° SE 19:22:48 10° ENE visible
27 Sep -1.6 20:53:31 10° W 20:56:02 24° NNW 20:56:02 24° NNW visible
28 Sep -2.4 20:00:40 10° W 20:03:43 36° NNW 20:05:59 16° NNE visible
29 Sep -3.4 19:08:03 10° WSW 19:11:15 63° NW 19:14:30 10° NE visible
29 Sep -1.3 20:46:04 10° WNW 20:48:14 16° NNW 20:48:27 16° N visible
30 Sep -1.6 19:53:01 10° WNW 19:55:36 21° NNW 19:58:11 10° NNE visible
01 Oct -1.1 20:38:37 10° NW 20:40:16 13° N 20:40:29 13° N visible
02 Oct -1.2 19:45:31 10° NW 19:47:32 15° NNW 19:49:35 10° NNE visible
03 Oct -1.1 20:30:51 10° NNW 20:32:15 12° N 20:32:15 12° N visible
04 Oct -1.2 19:37:58 10° NNW 19:39:30 13° N 19:41:03 10° NNE visible
05 Oct -1.2 20:22:29 10° NNW 20:23:55 13° N 20:23:55 13° N visible
